Year,Month,Day,Hour,Minute,Value (Times are PST for windspeed in km/hr)
2016,08,26,00,00,0.00
2016,08,26,00,01,0.00
2016,08,26,00,02,0.00
2016,08,26,00,03,0.00
2016,08,26,00,04,0.00
2016,08,26,00,05,0.00
2016,08,26,00,06,0.00
2016,08,26,00,07,0.00
2016,08,26,00,08,0.80
2016,08,26,00,09,2.10
2016,08,26,00,10,0.60
2016,08,26,00,11,0.00
2016,08,26,00,12,0.50
2016,08,26,00,13,1.30
2016,08,26,00,14,2.00
2016,08,26,00,15,2.40
2016,08,26,00,16,1.70
2016,08,26,00,17,1.10
2016,08,26,00,18,0.10
2016,08,26,00,19,0.20
2016,08,26,00,20,0.10
2016,08,26,00,21,1.00
2016,08,26,00,22,3.60
2016,08,26,00,23,2.70
2016,08,26,00,24,3.60
2016,08,26,00,25,3.10
2016,08,26,00,26,4.40
2016,08,26,00,27,4.00
2016,08,26,00,28,3.80
2016,08,26,00,29,3.40
2016,08,26,00,30,3.30
2016,08,26,00,31,3.40
2016,08,26,00,32,3.20
2016,08,26,00,33,3.20
2016,08,26,00,34,2.80
2016,08,26,00,35,1.60
2016,08,26,00,36,1.00
2016,08,26,00,37,0.10
2016,08,26,00,38,0.90
2016,08,26,00,39,1.60
2016,08,26,00,40,0.80
2016,08,26,00,41,1.30
2016,08,26,00,42,0.20
2016,08,26,00,43,1.30
2016,08,26,00,44,3.20
2016,08,26,00,45,2.60
2016,08,26,00,46,0.90
2016,08,26,00,47,1.40
2016,08,26,00,48,0.70
2016,08,26,00,49,0.00
2016,08,26,00,50,0.30
2016,08,26,00,51,2.00
2016,08,26,00,52,2.30
2016,08,26,00,53,0.90
2016,08,26,00,54,0.10
2016,08,26,00,55,0.00
2016,08,26,00,56,0.20
2016,08,26,00,57,1.20
2016,08,26,00,58,0.30
2016,08,26,00,59,0.90
2016,08,26,01,00,1.80
2016,08,26,01,01,1.30
2016,08,26,01,02,1.40
2016,08,26,01,03,1.70
2016,08,26,01,04,0.90
2016,08,26,01,05,2.10
2016,08,26,01,06,1.50
2016,08,26,01,07,1.20
2016,08,26,01,08,0.30
2016,08,26,01,09,0.00
2016,08,26,01,10,0.90
2016,08,26,01,11,2.10
2016,08,26,01,12,1.40
2016,08,26,01,13,0.90
2016,08,26,01,14,1.70
2016,08,26,01,15,1.60
2016,08,26,01,16,1.30
2016,08,26,01,17,0.40
2016,08,26,01,18,0.30
2016,08,26,01,19,0.10
2016,08,26,01,20,0.30
2016,08,26,01,21,1.80
2016,08,26,01,22,2.80
2016,08,26,01,23,2.90
2016,08,26,01,24,2.50
2016,08,26,01,25,3.00
2016,08,26,01,26,2.80
2016,08,26,01,27,3.00
2016,08,26,01,28,3.10
2016,08,26,01,29,2.20
2016,08,26,01,30,2.40
2016,08,26,01,31,1.50
2016,08,26,01,32,0.70
2016,08,26,01,33,0.00
2016,08,26,01,34,0.50
2016,08,26,01,35,2.30
2016,08,26,01,36,3.30
2016,08,26,01,37,2.50
2016,08,26,01,38,4.30
2016,08,26,01,39,2.80
2016,08,26,01,40,3.90
2016,08,26,01,41,5.00
2016,08,26,01,42,3.40
2016,08,26,01,43,5.10
2016,08,26,01,44,4.80
2016,08,26,01,45,4.60
2016,08,26,01,46,3.60
2016,08,26,01,47,4.00
2016,08,26,01,48,2.40
2016,08,26,01,49,4.00
2016,08,26,01,50,2.40
2016,08,26,01,51,1.70
2016,08,26,01,52,1.60
2016,08,26,01,53,1.00
2016,08,26,01,54,1.10
2016,08,26,01,55,0.80
2016,08,26,01,56,0.00
2016,08,26,01,57,0.00
2016,08,26,01,58,0.00
2016,08,26,01,59,1.80
2016,08,26,02,00,2.30
2016,08,26,02,01,3.20
2016,08,26,02,02,3.00
2016,08,26,02,03,3.00
2016,08,26,02,04,2.90
2016,08,26,02,05,1.90
2016,08,26,02,06,1.20
2016,08,26,02,07,0.10
2016,08,26,02,08,0.00
2016,08,26,02,09,0.00
2016,08,26,02,10,0.00
2016,08,26,02,11,0.00
2016,08,26,02,12,0.00
2016,08,26,02,13,0.00
2016,08,26,02,14,0.40
2016,08,26,02,15,0.80
2016,08,26,02,16,0.00
2016,08,26,02,17,0.00
2016,08,26,02,18,0.00
2016,08,26,02,19,0.00
2016,08,26,02,20,0.30
2016,08,26,02,21,1.30
2016,08,26,02,22,1.70
2016,08,26,02,23,1.80
2016,08,26,02,24,0.90
2016,08,26,02,25,2.50
2016,08,26,02,26,2.20
2016,08,26,02,27,1.10
2016,08,26,02,28,0.00
2016,08,26,02,29,0.00
2016,08,26,02,30,0.00
2016,08,26,02,31,0.00
2016,08,26,02,32,0.00
2016,08,26,02,33,0.40
2016,08,26,02,34,1.40
2016,08,26,02,35,1.90
2016,08,26,02,36,1.30
2016,08,26,02,37,0.60
2016,08,26,02,38,1.60
2016,08,26,02,39,0.30
2016,08,26,02,40,0.00
2016,08,26,02,41,0.00
2016,08,26,02,42,0.90
2016,08,26,02,43,1.20
2016,08,26,02,44,0.30
2016,08,26,02,45,0.30
2016,08,26,02,46,0.10
2016,08,26,02,47,0.40
2016,08,26,02,48,1.30
2016,08,26,02,49,2.50
2016,08,26,02,50,2.20
2016,08,26,02,51,2.40
2016,08,26,02,52,1.80
2016,08,26,02,53,0.70
2016,08,26,02,54,0.00
2016,08,26,02,55,0.00
2016,08,26,02,56,0.00
2016,08,26,02,57,0.00
2016,08,26,02,58,0.00
2016,08,26,02,59,0.00
2016,08,26,03,00,0.00
2016,08,26,03,01,0.10
2016,08,26,03,02,0.00
2016,08,26,03,03,0.00
2016,08,26,03,04,0.00
2016,08,26,03,05,0.40
2016,08,26,03,06,1.90
2016,08,26,03,07,3.20
2016,08,26,03,08,2.90
2016,08,26,03,09,4.00
2016,08,26,03,10,3.40
2016,08,26,03,11,1.90
2016,08,26,03,12,1.00
2016,08,26,03,13,0.10
2016,08,26,03,14,0.00
2016,08,26,03,15,0.00
2016,08,26,03,16,0.30
2016,08,26,03,17,0.00
2016,08,26,03,18,0.00
2016,08,26,03,19,0.00
2016,08,26,03,20,0.00
2016,08,26,03,21,0.00
2016,08,26,03,22,0.00
2016,08,26,03,23,0.00
2016,08,26,03,24,0.00
2016,08,26,03,25,0.00
2016,08,26,03,26,0.00
2016,08,26,03,27,0.00
2016,08,26,03,28,0.00
2016,08,26,03,29,0.20
2016,08,26,03,30,0.10
2016,08,26,03,31,1.70
2016,08,26,03,32,2.40
2016,08,26,03,33,3.00
2016,08,26,03,34,3.20
2016,08,26,03,35,3.40
2016,08,26,03,36,2.90
2016,08,26,03,37,2.20
2016,08,26,03,38,0.50
2016,08,26,03,39,1.70
2016,08,26,03,40,3.10
2016,08,26,03,41,3.20
2016,08,26,03,42,3.70
2016,08,26,03,43,3.50
2016,08,26,03,44,3.30
2016,08,26,03,45,3.30
2016,08,26,03,46,2.50
2016,08,26,03,47,3.20
2016,08,26,03,48,2.50
2016,08,26,03,49,1.20
2016,08,26,03,50,2.40
2016,08,26,03,51,2.70
2016,08,26,03,52,0.40
2016,08,26,03,53,0.10
2016,08,26,03,54,2.10
2016,08,26,03,55,2.00
2016,08,26,03,56,2.00
2016,08,26,03,57,1.60
2016,08,26,03,58,1.50
2016,08,26,03,59,3.10
2016,08,26,04,00,1.20
2016,08,26,04,01,0.00
2016,08,26,04,02,0.00
2016,08,26,04,03,0.00
2016,08,26,04,04,0.00
2016,08,26,04,05,0.00
2016,08,26,04,06,0.00
2016,08,26,04,07,0.00
2016,08,26,04,08,0.00
2016,08,26,04,09,0.00
2016,08,26,04,10,0.00
2016,08,26,04,11,0.00
2016,08,26,04,12,0.00
2016,08,26,04,13,0.00
2016,08,26,04,14,0.00
2016,08,26,04,15,0.00
2016,08,26,04,16,0.00
2016,08,26,04,17,1.00
2016,08,26,04,18,2.20
2016,08,26,04,19,1.60
2016,08,26,04,20,1.20
2016,08,26,04,21,1.70
2016,08,26,04,22,1.60
2016,08,26,04,23,0.30
2016,08,26,04,24,0.00
2016,08,26,04,25,0.00
2016,08,26,04,26,0.00
2016,08,26,04,27,0.00
2016,08,26,04,28,0.00
2016,08,26,04,29,0.00
2016,08,26,04,30,0.00
2016,08,26,04,31,0.40
2016,08,26,04,32,1.30
2016,08,26,04,33,1.20
2016,08,26,04,34,0.60
2016,08,26,04,35,0.90
2016,08,26,04,36,0.80
2016,08,26,04,37,0.00
2016,08,26,04,38,0.00
2016,08,26,04,39,0.00
2016,08,26,04,40,0.00
2016,08,26,04,41,0.00
2016,08,26,04,42,0.00
2016,08,26,04,43,0.30
2016,08,26,04,44,1.90
2016,08,26,04,45,1.40
2016,08,26,04,46,1.10
2016,08,26,04,47,0.70
2016,08,26,04,48,0.20
2016,08,26,04,49,0.00
2016,08,26,04,50,0.00
2016,08,26,04,51,0.00
2016,08,26,04,52,0.00
2016,08,26,04,53,0.00
2016,08,26,04,54,0.10
2016,08,26,04,55,2.10
2016,08,26,04,56,1.90
2016,08,26,04,57,1.80
2016,08,26,04,58,1.60
2016,08,26,04,59,1.60
2016,08,26,05,00,1.50
2016,08,26,05,01,1.50
2016,08,26,05,02,1.60
2016,08,26,05,03,1.50
2016,08,26,05,04,2.30
2016,08,26,05,05,1.90
2016,08,26,05,06,2.30
2016,08,26,05,07,1.10
2016,08,26,05,08,1.10
2016,08,26,05,09,0.30
2016,08,26,05,10,0.40
2016,08,26,05,11,0.40
2016,08,26,05,12,0.00
2016,08,26,05,13,0.00
2016,08,26,05,14,0.00
2016,08,26,05,15,0.00
2016,08,26,05,16,0.00
2016,08,26,05,17,0.00
2016,08,26,05,18,0.00
2016,08,26,05,19,0.00
2016,08,26,05,20,0.00
2016,08,26,05,21,0.00
2016,08,26,05,22,0.60
2016,08,26,05,23,1.00
2016,08,26,05,24,0.80
2016,08,26,05,25,1.20
2016,08,26,05,26,1.30
2016,08,26,05,27,0.20
2016,08,26,05,28,0.10
2016,08,26,05,29,1.10
2016,08,26,05,30,0.70
2016,08,26,05,31,1.10
2016,08,26,05,32,1.10
2016,08,26,05,33,1.10
2016,08,26,05,34,0.40
2016,08,26,05,35,0.10
2016,08,26,05,36,0.00
2016,08,26,05,37,0.00
2016,08,26,05,38,0.10
2016,08,26,05,39,0.20
2016,08,26,05,40,1.10
2016,08,26,05,41,0.70
2016,08,26,05,42,0.10
2016,08,26,05,43,0.00
2016,08,26,05,44,0.00
2016,08,26,05,45,0.00
2016,08,26,05,46,0.00
2016,08,26,05,47,0.00
2016,08,26,05,48,0.00
2016,08,26,05,49,0.00
2016,08,26,05,50,0.00
2016,08,26,05,51,0.00
2016,08,26,05,52,0.00
2016,08,26,05,53,1.50
2016,08,26,05,54,1.60
2016,08,26,05,55,1.40
2016,08,26,05,56,0.00
2016,08,26,05,57,0.00
2016,08,26,05,58,0.20
2016,08,26,05,59,0.00
2016,08,26,06,00,0.80
2016,08,26,06,01,0.40
2016,08,26,06,02,1.30
2016,08,26,06,03,1.10
2016,08,26,06,04,2.70
2016,08,26,06,05,1.40
2016,08,26,06,06,0.00
2016,08,26,06,07,0.00
2016,08,26,06,08,0.10
2016,08,26,06,09,1.30
2016,08,26,06,10,1.40
2016,08,26,06,11,1.30
2016,08,26,06,12,1.40
2016,08,26,06,13,0.60
2016,08,26,06,14,0.00
2016,08,26,06,15,0.00
2016,08,26,06,16,0.00
2016,08,26,06,17,0.00
2016,08,26,06,18,0.00
2016,08,26,06,19,0.00
2016,08,26,06,20,0.00
2016,08,26,06,21,0.00
2016,08,26,06,22,0.00
2016,08,26,06,23,0.00
2016,08,26,06,24,0.00
2016,08,26,06,25,0.40
2016,08,26,06,26,1.20
2016,08,26,06,27,1.60
2016,08,26,06,28,0.20
2016,08,26,06,29,1.00
2016,08,26,06,30,0.40
2016,08,26,06,31,0.10
2016,08,26,06,32,0.00
2016,08,26,06,33,0.00
2016,08,26,06,34,0.00
2016,08,26,06,35,0.00
2016,08,26,06,36,0.00
2016,08,26,06,37,0.00
2016,08,26,06,38,0.00
2016,08,26,06,39,0.00
2016,08,26,06,40,0.00
2016,08,26,06,41,0.00
2016,08,26,06,42,0.00
2016,08,26,06,43,0.00
2016,08,26,06,44,0.00
2016,08,26,06,45,0.00
2016,08,26,06,46,0.00
2016,08,26,06,47,0.00
2016,08,26,06,48,0.00
2016,08,26,06,49,0.00
2016,08,26,06,50,0.00
2016,08,26,06,51,0.00
2016,08,26,06,52,0.00
2016,08,26,06,53,0.00
2016,08,26,06,54,1.30
2016,08,26,06,55,3.70
2016,08,26,06,56,3.90
2016,08,26,06,57,3.80
2016,08,26,06,58,4.90
2016,08,26,06,59,4.70
2016,08,26,07,00,3.80
2016,08,26,07,01,3.20
2016,08,26,07,02,2.50
2016,08,26,07,03,0.90
2016,08,26,07,04,0.10
2016,08,26,07,05,0.00
2016,08,26,07,06,0.00
2016,08,26,07,07,0.00
2016,08,26,07,08,0.00
2016,08,26,07,09,0.00
2016,08,26,07,10,0.00
2016,08,26,07,11,2.60
2016,08,26,07,12,3.30
2016,08,26,07,13,3.20
2016,08,26,07,14,3.00
2016,08,26,07,15,3.60
2016,08,26,07,16,3.80
2016,08,26,07,17,2.60
2016,08,26,07,18,2.60
2016,08,26,07,19,3.30
2016,08,26,07,20,2.90
2016,08,26,07,21,3.00
2016,08,26,07,22,2.60
2016,08,26,07,23,3.00
2016,08,26,07,24,3.30
2016,08,26,07,25,2.80
2016,08,26,07,26,2.20
2016,08,26,07,27,1.10
2016,08,26,07,28,0.60
2016,08,26,07,29,0.10
2016,08,26,07,30,1.70
2016,08,26,07,31,2.30
2016,08,26,07,32,2.90
2016,08,26,07,33,2.20
2016,08,26,07,34,2.40
2016,08,26,07,35,3.40
2016,08,26,07,36,3.00
2016,08,26,07,37,4.00
2016,08,26,07,38,3.60
2016,08,26,07,39,0.30
2016,08,26,07,40,1.10
2016,08,26,07,41,2.40
2016,08,26,07,42,3.70
2016,08,26,07,43,4.30
2016,08,26,07,44,3.70
2016,08,26,07,45,3.50
2016,08,26,07,46,1.80
2016,08,26,07,47,2.30
2016,08,26,07,48,3.10
2016,08,26,07,49,2.40
2016,08,26,07,50,2.10
2016,08,26,07,51,0.20
2016,08,26,07,52,0.00
2016,08,26,07,53,0.00
2016,08,26,07,54,0.00
2016,08,26,07,55,0.40
2016,08,26,07,56,0.50
2016,08,26,07,57,0.00
2016,08,26,07,58,0.00
2016,08,26,07,59,0.00
2016,08,26,08,00,0.00
2016,08,26,08,01,0.00
2016,08,26,08,02,0.00
2016,08,26,08,03,0.00
2016,08,26,08,04,0.00
2016,08,26,08,05,0.00
2016,08,26,08,06,0.00
2016,08,26,08,07,0.00
2016,08,26,08,08,0.00
2016,08,26,08,09,0.10
2016,08,26,08,10,0.00
2016,08,26,08,11,0.00
2016,08,26,08,12,0.00
2016,08,26,08,13,0.00
2016,08,26,08,14,0.00
2016,08,26,08,15,0.20
2016,08,26,08,16,0.10
2016,08,26,08,17,0.00
2016,08,26,08,18,0.00
2016,08,26,08,19,0.00
2016,08,26,08,20,0.00
2016,08,26,08,21,0.00
2016,08,26,08,22,0.00
2016,08,26,08,23,0.00
2016,08,26,08,24,0.90
2016,08,26,08,25,1.20
2016,08,26,08,26,1.20
2016,08,26,08,27,0.00
2016,08,26,08,28,0.00
2016,08,26,08,29,0.10
2016,08,26,08,30,0.90
2016,08,26,08,31,0.10
2016,08,26,08,32,0.20
2016,08,26,08,33,0.10
2016,08,26,08,34,0.00
2016,08,26,08,35,0.00
2016,08,26,08,36,0.00
2016,08,26,08,37,0.00
2016,08,26,08,38,0.00
2016,08,26,08,39,0.00
2016,08,26,08,40,0.20
2016,08,26,08,41,0.00
2016,08,26,08,42,0.00
2016,08,26,08,43,0.00
2016,08,26,08,44,0.00
2016,08,26,08,45,0.00
2016,08,26,08,46,0.20
2016,08,26,08,47,0.20
2016,08,26,08,48,2.60
2016,08,26,08,49,2.80
2016,08,26,08,50,0.40
2016,08,26,08,51,0.60
2016,08,26,08,52,0.00
2016,08,26,08,53,0.40
2016,08,26,08,54,0.10
2016,08,26,08,55,0.00
2016,08,26,08,56,0.20
2016,08,26,08,57,0.10
2016,08,26,08,58,0.20
2016,08,26,08,59,1.30
2016,08,26,09,00,1.20
2016,08,26,09,01,2.60
2016,08,26,09,02,0.30
2016,08,26,09,03,0.70
2016,08,26,09,04,2.10
2016,08,26,09,05,0.50
2016,08,26,09,06,0.30
2016,08,26,09,07,1.30
2016,08,26,09,08,0.30
2016,08,26,09,09,1.20
2016,08,26,09,10,0.60
2016,08,26,09,11,2.40
2016,08,26,09,12,1.20
2016,08,26,09,13,3.50
2016,08,26,09,14,2.90
2016,08,26,09,15,1.70
2016,08,26,09,16,0.30
2016,08,26,09,17,3.40
2016,08,26,09,18,1.70
2016,08,26,09,19,0.20
2016,08,26,09,20,0.10
2016,08,26,09,21,0.20
2016,08,26,09,22,0.60
2016,08,26,09,23,0.40
2016,08,26,09,24,0.00
2016,08,26,09,25,1.00
2016,08,26,09,26,0.80
2016,08,26,09,27,2.20
2016,08,26,09,28,0.90
2016,08,26,09,29,0.40
2016,08,26,09,30,0.00
2016,08,26,09,31,0.90
2016,08,26,09,32,0.50
2016,08,26,09,33,0.30
2016,08,26,09,34,0.50
2016,08,26,09,35,1.30
2016,08,26,09,36,2.70
2016,08,26,09,37,2.60
2016,08,26,09,38,2.30
2016,08,26,09,39,0.60
2016,08,26,09,40,5.20
2016,08,26,09,41,3.30
2016,08,26,09,42,6.30
2016,08,26,09,43,4.50
2016,08,26,09,44,4.70
2016,08,26,09,45,3.30
2016,08,26,09,46,3.50
2016,08,26,09,47,2.50
2016,08,26,09,48,0.90
2016,08,26,09,49,2.10
2016,08,26,09,50,1.40
2016,08,26,09,51,3.90
2016,08,26,09,52,4.70
2016,08,26,09,53,3.00
2016,08,26,09,54,3.60
2016,08,26,09,55,2.40
2016,08,26,09,56,1.90
2016,08,26,09,57,3.60
2016,08,26,09,58,4.90
2016,08,26,09,59,4.40
2016,08,26,10,00,5.50
2016,08,26,10,01,6.80
2016,08,26,10,02,5.00
2016,08,26,10,03,3.90
2016,08,26,10,04,6.70
2016,08,26,10,05,6.40
2016,08,26,10,06,7.60
2016,08,26,10,07,5.10
2016,08,26,10,08,7.10
2016,08,26,10,09,5.70
2016,08,26,10,10,4.40
2016,08,26,10,11,5.00
2016,08,26,10,12,4.20
2016,08,26,10,13,7.70
2016,08,26,10,14,6.00
2016,08,26,10,15,6.20
2016,08,26,10,16,4.80
2016,08,26,10,17,2.80
2016,08,26,10,18,5.40
2016,08,26,10,19,4.70
2016,08,26,10,20,6.30
2016,08,26,10,21,5.10
2016,08,26,10,22,2.60
2016,08,26,10,23,3.50
2016,08,26,10,24,6.80
2016,08,26,10,25,9.20
2016,08,26,10,26,8.50
2016,08,26,10,27,7.80
2016,08,26,10,28,7.10
2016,08,26,10,29,6.40
2016,08,26,10,30,5.80
2016,08,26,10,31,5.30
2016,08,26,10,32,5.30
2016,08,26,10,33,5.80
2016,08,26,10,34,5.60
2016,08,26,10,35,7.40
2016,08,26,10,36,5.80
2016,08,26,10,37,5.40
2016,08,26,10,38,3.70
2016,08,26,10,39,2.90
2016,08,26,10,40,4.70
2016,08,26,10,41,7.00
2016,08,26,10,42,8.20
2016,08,26,10,43,7.70
2016,08,26,10,44,8.20
2016,08,26,10,45,7.90
2016,08,26,10,46,8.80
2016,08,26,10,47,8.70
2016,08,26,10,48,6.30
2016,08,26,10,49,6.40
2016,08,26,10,50,7.80
2016,08,26,10,51,6.70
2016,08,26,10,52,7.10
2016,08,26,10,53,8.10
2016,08,26,10,54,5.70
2016,08,26,10,55,5.60
2016,08,26,10,56,4.00
2016,08,26,10,57,4.30
2016,08,26,10,58,5.10
2016,08,26,10,59,6.40
2016,08,26,11,00,5.30
2016,08,26,11,01,5.90
2016,08,26,11,02,6.30
2016,08,26,11,03,5.80
2016,08,26,11,04,5.60
2016,08,26,11,05,2.70
2016,08,26,11,06,4.60
2016,08,26,11,07,5.50
2016,08,26,11,08,5.10
2016,08,26,11,09,4.30
2016,08,26,11,10,6.20
2016,08,26,11,11,3.80
2016,08,26,11,12,5.50
2016,08,26,11,13,5.70
2016,08,26,11,14,4.90
2016,08,26,11,15,0.70
2016,08,26,11,16,3.20
2016,08,26,11,17,3.50
2016,08,26,11,18,5.50
2016,08,26,11,19,3.80
2016,08,26,11,20,6.60
2016,08,26,11,21,5.50
2016,08,26,11,22,2.70
2016,08,26,11,23,3.20
2016,08,26,11,24,5.40
2016,08,26,11,25,4.40
2016,08,26,11,26,5.00
2016,08,26,11,27,4.50
2016,08,26,11,28,5.20
2016,08,26,11,29,1.60
2016,08,26,11,30,4.70
2016,08,26,11,31,7.20
2016,08,26,11,32,8.10
2016,08,26,11,33,7.30
2016,08,26,11,34,7.00
2016,08,26,11,35,8.20
2016,08,26,11,36,8.70
2016,08,26,11,37,7.20
2016,08,26,11,38,7.70
2016,08,26,11,39,9.50
2016,08,26,11,40,7.30
2016,08,26,11,41,8.20
2016,08,26,11,42,7.30
2016,08,26,11,43,8.20
2016,08,26,11,44,6.30
2016,08,26,11,45,6.50
2016,08,26,11,46,9.60
2016,08,26,11,47,6.80
2016,08,26,11,48,8.20
2016,08,26,11,49,7.10
2016,08,26,11,50,5.50
2016,08,26,11,51,4.50
2016,08,26,11,52,4.60
2016,08,26,11,53,7.90
2016,08,26,11,54,8.50
2016,08,26,11,55,5.10
2016,08,26,11,56,6.60
2016,08,26,11,57,7.70
2016,08,26,11,58,5.90
2016,08,26,11,59,6.80
2016,08,26,12,00,7.40
2016,08,26,12,01,9.50
2016,08,26,12,02,7.80
2016,08,26,12,03,7.30
2016,08,26,12,04,7.00
2016,08,26,12,05,9.10
2016,08,26,12,06,8.90
2016,08,26,12,07,8.20
2016,08,26,12,08,8.10
2016,08,26,12,09,8.60
2016,08,26,12,10,8.10
2016,08,26,12,11,10.20
2016,08,26,12,12,10.30
2016,08,26,12,13,5.10
2016,08,26,12,14,10.90
2016,08,26,12,15,11.30
2016,08,26,12,16,8.50
2016,08,26,12,17,8.70
2016,08,26,12,18,7.90
2016,08,26,12,19,4.50
2016,08,26,12,20,6.00
2016,08,26,12,21,7.40
2016,08,26,12,22,7.80
2016,08,26,12,23,8.90
2016,08,26,12,24,10.40
2016,08,26,12,25,8.50
2016,08,26,12,26,8.70
2016,08,26,12,27,7.10
2016,08,26,12,28,6.20
2016,08,26,12,29,8.20
2016,08,26,12,30,7.40
2016,08,26,12,31,7.20
2016,08,26,12,32,8.70
2016,08,26,12,33,6.80
2016,08,26,12,34,10.30
2016,08,26,12,35,8.70
2016,08,26,12,36,8.30
2016,08,26,12,37,5.60
2016,08,26,12,38,10.80
2016,08,26,12,39,10.40
2016,08,26,12,40,8.60
2016,08,26,12,41,7.80
2016,08,26,12,42,11.50
2016,08,26,12,43,9.00
2016,08,26,12,44,9.10
2016,08,26,12,45,9.80
2016,08,26,12,46,7.70
2016,08,26,12,47,8.90
2016,08,26,12,48,10.10
2016,08,26,12,49,6.70
2016,08,26,12,50,5.70
2016,08,26,12,51,6.20
2016,08,26,12,52,6.60
2016,08,26,12,53,7.80
2016,08,26,12,54,7.80
2016,08,26,12,55,5.60
2016,08,26,12,56,7.90
2016,08,26,12,57,9.70
2016,08,26,12,58,6.60
2016,08,26,12,59,8.30
2016,08,26,13,00,5.60
2016,08,26,13,01,7.70
2016,08,26,13,02,6.80
2016,08,26,13,03,5.70
2016,08,26,13,04,8.20
2016,08,26,13,05,6.40
2016,08,26,13,06,8.00
2016,08,26,13,07,9.70
2016,08,26,13,08,7.90
2016,08,26,13,09,9.60
2016,08,26,13,10,9.70
2016,08,26,13,11,6.20
2016,08,26,13,12,6.50
2016,08,26,13,13,9.60
2016,08,26,13,14,9.30
2016,08,26,13,15,6.30
2016,08,26,13,16,6.10
2016,08,26,13,17,9.20
2016,08,26,13,18,8.90
2016,08,26,13,19,7.60
2016,08,26,13,20,7.50
2016,08,26,13,21,7.60
2016,08,26,13,22,7.30
2016,08,26,13,23,6.20
2016,08,26,13,24,7.50
2016,08,26,13,25,6.50
2016,08,26,13,26,8.10
2016,08,26,13,27,6.60
2016,08,26,13,28,5.00
2016,08,26,13,29,6.30
2016,08,26,13,30,5.90
2016,08,26,13,31,7.10
2016,08,26,13,32,7.20
2016,08,26,13,33,7.30
2016,08,26,13,34,10.30
2016,08,26,13,35,8.60
2016,08,26,13,36,5.20
2016,08,26,13,37,9.20
2016,08,26,13,38,10.50
2016,08,26,13,39,7.70
2016,08,26,13,40,9.90
2016,08,26,13,41,7.90
2016,08,26,13,42,9.00
2016,08,26,13,43,8.90
2016,08,26,13,44,8.90
2016,08,26,13,45,6.60
2016,08,26,13,46,7.90
2016,08,26,13,47,9.20
2016,08,26,13,48,6.00
2016,08,26,13,49,8.90
2016,08,26,13,50,7.90
2016,08,26,13,51,8.80
2016,08,26,13,52,6.40
2016,08,26,13,53,6.80
2016,08,26,13,54,6.40
2016,08,26,13,55,5.30
2016,08,26,13,56,9.40
2016,08,26,13,57,11.40
2016,08,26,13,58,8.30
2016,08,26,13,59,10.70
2016,08,26,14,00,10.20
2016,08,26,14,01,9.20
2016,08,26,14,02,8.90
2016,08,26,14,03,7.40
2016,08,26,14,04,8.40
2016,08,26,14,05,6.60
2016,08,26,14,06,5.30
2016,08,26,14,07,3.00
2016,08,26,14,08,7.30
2016,08,26,14,09,6.50
2016,08,26,14,10,4.00
2016,08,26,14,11,4.90
2016,08,26,14,12,6.40
2016,08,26,14,13,3.00
2016,08,26,14,14,6.70
2016,08,26,14,15,9.10
2016,08,26,14,16,10.70
2016,08,26,14,17,8.80
2016,08,26,14,18,8.60
2016,08,26,14,19,7.00
2016,08,26,14,20,7.00
2016,08,26,14,21,6.20
2016,08,26,14,22,7.60
2016,08,26,14,23,11.90
2016,08,26,14,24,9.70
2016,08,26,14,25,7.20
2016,08,26,14,26,8.30
2016,08,26,14,27,10.30
2016,08,26,14,28,8.70
2016,08,26,14,29,5.00
2016,08,26,14,30,8.60
2016,08,26,14,31,7.20
2016,08,26,14,32,4.00
2016,08,26,14,33,4.10
2016,08,26,14,34,4.80
2016,08,26,14,35,3.00
2016,08,26,14,36,3.80
2016,08,26,14,37,6.30
2016,08,26,14,38,6.80
2016,08,26,14,39,6.80
2016,08,26,14,40,3.70
2016,08,26,14,41,5.90
2016,08,26,14,42,7.20
2016,08,26,14,43,8.40
2016,08,26,14,44,6.30
2016,08,26,14,45,6.10
2016,08,26,14,46,2.30
2016,08,26,14,47,4.50
2016,08,26,14,48,4.80
2016,08,26,14,49,6.40
2016,08,26,14,50,5.00
2016,08,26,14,51,6.10
2016,08,26,14,52,5.90
2016,08,26,14,53,2.20
2016,08,26,14,54,8.00
2016,08,26,14,55,7.10
2016,08,26,14,56,6.90
2016,08,26,14,57,11.60
2016,08,26,14,58,6.30
2016,08,26,14,59,9.70
2016,08,26,15,00,9.60
2016,08,26,15,01,6.30
2016,08,26,15,02,7.70
2016,08,26,15,03,7.20
2016,08,26,15,04,4.30
2016,08,26,15,05,10.00
2016,08,26,15,06,8.60
2016,08,26,15,07,10.50
2016,08,26,15,08,8.90
2016,08,26,15,09,11.70
2016,08,26,15,10,11.50
2016,08,26,15,11,10.40
2016,08,26,15,12,8.20
2016,08,26,15,13,9.40
2016,08,26,15,14,11.50
2016,08,26,15,15,12.30
2016,08,26,15,16,11.20
2016,08,26,15,17,11.30
2016,08,26,15,18,10.50
2016,08,26,15,19,11.30
2016,08,26,15,20,12.90
2016,08,26,15,21,10.00
2016,08,26,15,22,11.50
2016,08,26,15,23,10.70
2016,08,26,15,24,10.70
2016,08,26,15,25,11.60
2016,08,26,15,26,9.60
2016,08,26,15,27,7.90
2016,08,26,15,28,9.40
2016,08,26,15,29,8.70
2016,08,26,15,30,7.40
2016,08,26,15,31,8.10
2016,08,26,15,32,10.70
2016,08,26,15,33,7.00
2016,08,26,15,34,8.00
2016,08,26,15,35,8.20
2016,08,26,15,36,5.60
2016,08,26,15,37,5.50
2016,08,26,15,38,5.50
2016,08,26,15,39,7.00
2016,08,26,15,40,9.50
2016,08,26,15,41,6.20
2016,08,26,15,42,4.70
2016,08,26,15,43,8.20
2016,08,26,15,44,9.60
2016,08,26,15,45,7.20
2016,08,26,15,46,4.40
2016,08,26,15,47,4.80
2016,08,26,15,48,3.10
2016,08,26,15,49,3.30
2016,08,26,15,50,5.10
2016,08,26,15,51,5.70
2016,08,26,15,52,6.00
2016,08,26,15,53,11.20
2016,08,26,15,54,8.80
2016,08,26,15,55,7.80
2016,08,26,15,56,11.30
2016,08,26,15,57,8.10
2016,08,26,15,58,5.20
2016,08,26,15,59,5.80
2016,08,26,16,00,4.20
2016,08,26,16,01,7.30
2016,08,26,16,02,4.50
2016,08,26,16,03,6.40
2016,08,26,16,04,6.00
2016,08,26,16,05,5.30
2016,08,26,16,06,6.40
2016,08,26,16,07,6.30
2016,08,26,16,08,8.30
2016,08,26,16,09,9.40
2016,08,26,16,10,9.40
2016,08,26,16,11,7.30
2016,08,26,16,12,6.10
2016,08,26,16,13,4.20
2016,08,26,16,14,9.10
2016,08,26,16,15,6.40
2016,08,26,16,16,7.00
2016,08,26,16,17,4.80
2016,08,26,16,18,6.20
2016,08,26,16,19,4.20
2016,08,26,16,20,5.20
2016,08,26,16,21,5.60
2016,08,26,16,22,2.20
2016,08,26,16,23,3.20
2016,08,26,16,24,5.30
2016,08,26,16,25,2.40
2016,08,26,16,26,0.50
2016,08,26,16,27,3.30
2016,08,26,16,28,4.80
2016,08,26,16,29,5.70
2016,08,26,16,30,4.40
2016,08,26,16,31,3.70
2016,08,26,16,32,5.20
2016,08,26,16,33,9.30
2016,08,26,16,34,7.10
2016,08,26,16,35,7.30
2016,08,26,16,36,6.60
2016,08,26,16,37,6.90
2016,08,26,16,38,4.80
2016,08,26,16,39,4.20
2016,08,26,16,40,5.80
2016,08,26,16,41,5.00
2016,08,26,16,42,3.50
2016,08,26,16,43,1.80
2016,08,26,16,44,3.00
2016,08,26,16,45,3.20
2016,08,26,16,46,4.90
2016,08,26,16,47,4.00
2016,08,26,16,48,5.00
2016,08,26,16,49,6.50
2016,08,26,16,50,5.20
2016,08,26,16,51,5.60
2016,08,26,16,52,6.10
2016,08,26,16,53,7.70
2016,08,26,16,54,5.80
2016,08,26,16,55,5.70
2016,08,26,16,56,4.00
2016,08,26,16,57,6.70
2016,08,26,16,58,10.70
2016,08,26,16,59,6.70
2016,08,26,17,00,7.70
2016,08,26,17,01,8.10
2016,08,26,17,02,6.60
2016,08,26,17,03,9.30
2016,08,26,17,04,10.80
2016,08,26,17,05,6.30
2016,08,26,17,06,10.70
2016,08,26,17,07,8.00
2016,08,26,17,08,6.90
2016,08,26,17,09,9.20
2016,08,26,17,10,9.90
2016,08,26,17,11,9.30
2016,08,26,17,12,7.10
2016,08,26,17,13,9.70
2016,08,26,17,14,6.60
2016,08,26,17,15,8.00
2016,08,26,17,16,9.40
2016,08,26,17,17,12.20
2016,08,26,17,18,6.50
2016,08,26,17,19,9.10
2016,08,26,17,20,4.90
2016,08,26,17,21,5.30
2016,08,26,17,22,6.40
2016,08,26,17,23,7.80
2016,08,26,17,24,6.10
2016,08,26,17,25,8.10
2016,08,26,17,26,8.70
2016,08,26,17,27,7.80
2016,08,26,17,28,8.80
2016,08,26,17,29,8.10
2016,08,26,17,30,6.60
2016,08,26,17,31,8.20
2016,08,26,17,32,6.40
2016,08,26,17,33,7.90
2016,08,26,17,34,7.20
2016,08,26,17,35,9.90
2016,08,26,17,36,8.70
2016,08,26,17,37,8.30
2016,08,26,17,38,5.50
2016,08,26,17,39,10.60
2016,08,26,17,40,5.10
2016,08,26,17,41,7.50
2016,08,26,17,42,8.70
2016,08,26,17,43,9.00
2016,08,26,17,44,6.70
2016,08,26,17,45,10.10
2016,08,26,17,46,10.30
2016,08,26,17,47,9.70
2016,08,26,17,48,10.00
2016,08,26,17,49,11.70
2016,08,26,17,50,10.30
2016,08,26,17,51,8.00
2016,08,26,17,52,8.70
2016,08,26,17,53,7.50
2016,08,26,17,54,10.90
2016,08,26,17,55,8.30
2016,08,26,17,56,7.40
2016,08,26,17,57,10.30
2016,08,26,17,58,12.20
2016,08,26,17,59,6.10
2016,08,26,18,00,7.30
2016,08,26,18,01,7.40
2016,08,26,18,02,8.80
2016,08,26,18,03,13.30
2016,08,26,18,04,8.50